Regional Weather Roundup
Issued by NWS

Home | Current Version | Previous Version | Graphics & Text | Print | Product List | Glossary On
Versions: 1 2 3 4 5 6 7 8 9 10 11 12 13 14 15 16 17 18 19 20 21 22 23 24 25 26 27 28 29 30 31 32 33 34 35 36 37 38 39 40 41 42 43 44 45 46 47 48 49 50
000
ASUS43 KBIS 032302
RWRND

NORTH DAKOTA REGIONAL WEATHER ROUNDUP
NATIONAL WEATHER SERVICE BISMARCK ND
600 PM CDT FRI JUL 03 2015

NOTE: "FAIR" INDICATES FEW OR NO CLOUDS BELOW 12,000 FEET WITH NO
SIGNIFICANT WEATHER AND/OR OBSTRUCTIONS TO VISIBILITY.


NDZ001>003-009>011-017-040000-
NORTHWEST NORTH DAKOTA

CITY           SKY/WX    TMP DP  RH WIND       PRES   REMARKS
WILLISTON      SUNNY     86  54  33 MISG      29.89F
MINOT          CLOUDY    81  62  52 S7        29.90F HAZE
$$

NDZ018>021-031>035-040>046-040000-
SOUTHWEST NORTH DAKOTA

CITY           SKY/WX    TMP DP  RH WIND       PRES   REMARKS
BISMARCK       MOSUNNY   81  63  54 VRB6      29.94S HAZE
DICKINSON      SUNNY     81  60  48 S8        29.92F
GARRISON         N/A     79  64  60 SE5       29.92F
HETTINGER ARPT MOSUNNY   82  59  45 S8        29.96F
$$

NDZ004>008-012>016-024-026-027-054-040000-
NORTHEAST NORTH DAKOTA

CITY           SKY/WX    TMP DP  RH WIND       PRES   REMARKS
GRAND FORKS    MOSUNNY   80  61  52 NE8       29.90S HAZE
GRND FRKS AFB  SUNNY     79  59  50 NE7       29.91F
DEVILS LAKE    SUNNY     81  61  50 SW6       29.92S
$$

NDZ022-023-025-028>030-036>039-047>053-040000-
SOUTHEAST NORTH DAKOTA

CITY           SKY/WX    TMP DP  RH WIND       PRES   REMARKS
FARGO          MOSUNNY   82  64  54 NE3       29.90S HAZE
JAMESTOWN      CLOUDY    80  61  52 E5        29.92F HAZE
$$




USA.gov is the U.S. government's official web portal to all federal, state and local government web resources and services.